Regional Weather Roundup
Issued by NWS

Home | Current Version | Previous Version | Graphics & Text | Print | Product List | Glossary Off
Versions: 1 2 3 4 5 6 7 8 9 10 11 12 13 14 15 16 17 18 19 20 21 22 23 24 25 26 27 28 29 30 31 32 33 34 35 36 37 38 39 40 41 42 43 44 45 46 47 48 49 50

000
ASUS43 KDMX 240907
RWRIA

WEATHER ROUNDUP FOR IOWA
NATIONAL WEATHER SERVICE DES MOINES IA
300 AM CST WED DEC 24 2014

NOTE: "FAIR" INDICATES FEW OR NO CLOUDS BELOW 12,000 FEET WITH NO
SIGNIFICANT WEATHER AND/OR OBSTRUCTIONS TO VISIBILITY.

* - THESE STATIONS ARE NOT NWS STATIONS...THUS NOT UNDER NWS
QUALITY CONTROL.  THEY ALSO DO NOT REPORT WEATHER SUCH
AS PRECIPITATION OR FOG.

IAZ001>003-012>014-020>022-031>034-043>046-241000-
   NORTHWEST IOWA

CITY           SKY/WX    TMP DP  RH WIND       PRES   REMARKS
CARROLL *      CLOUDY    34  32  93 NW16G23   29.83S WCI  23
CHEROKEE *     CLOUDY    32  32 100 NW10G21   29.87S WCI  24
DENISON *      CLOUDY    34  34 100 N16G24    29.84S WCI  23
LE MARS *      CLOUDY    34  32  93 N15G22    29.91S WCI  24
ORANGE CITY *  CLOUDY    34  30  86 NW12      29.88F WCI  25
SHELDON *      CLOUDY    32  32 100 NW18      29.87S WCI  20
SIOUX CITY     CLOUDY    33  30  88 NW20      29.91S WCI  21
SPENCER        CLOUDY    33  30  88 NW18      29.85S WCI  22
STORM LAKE *   CLOUDY    32  32 100 N20       29.85S WCI  20
$$

IAZ055>058-069>071-079>083-090>094-241000-
   SOUTHWEST IOWA

CITY           SKY/WX    TMP DP  RH WIND       PRES   REMARKS
ATLANTIC *     CLOUDY    34  34 100 N15       29.84R WCI  24
AUDUBON *      FLURRIES  34  28  80 N13G18    29.84R WCI  25
CLARINDA *     MIX PCPN  36  34  93 NW17      29.86S WCI  25
COUNCIL BLFS * CLOUDY    34  34 100 NW20G29   29.85S WCI  22
CRESTON *      LGT SNOW  34  34 100 N15       29.80S WCI  24
HARLAN  *      CLOUDY    34  34 100 N16G24    29.88S WCI  23
LAMONI         LGT SNOW  33  32  96 N12       29.78S FOG     WCI  24
RED OAK *      CLOUDY    36  34  93 N18G24    29.85S WCI  25
SHENANDOAH *   CLOUDY    34  34 100 NW14G21   29.87S WCI  24
$$

IAZ047>049-059>061-072>074-084-241000-
   CENTRAL IOWA

CITY           SKY/WX    TMP DP  RH WIND       PRES   REMARKS
AMES           CLOUDY    34  31  88 N15       29.80R WCI  24
ANKENY *       LGT SNOW  34  34 100 N9        29.80R WCI  26
CHARITON *     LGT SNOW  34  32  93 NW12      29.77F WCI  25
DES MOINES     LGT SNOW  34  32  92 N9        29.80R FOG     WCI  27
GRINNELL*      LGT SNOW  32  32 100 NW8       29.76F WCI  25
KNOXVILLE *    LGT SNOW  34  32  93 N12       29.76F WCI  25
MARSHALLTOWN   CLOUDY    34  31  88 N13       29.77R WCI  25
PELLA *        RAIN      34  34 100 NW8       29.78F WCI  27
PERRY *        CLOUDY    34  34 100 N13       29.81S WCI  25
$$

IAZ004>006-015-016-023>025-035-036-241000-
   NORTH CENTRAL IOWA

CITY           SKY/WX    TMP DP  RH WIND       PRES   REMARKS
ALGONA *       DRIZZLE   34  34 100 N16G23    29.82S WCI  23
CLARION *      CLOUDY    34  34 100 N14       29.80R WCI  24
ESTHERVILLE    CLOUDY    32  30  92 N21       29.83S WCI  20
FORT DODGE *   CLOUDY    34  30  86 N10       29.82R WCI  26
MASON CITY     CLOUDY    33  31  92 N15       29.79S WCI  23
FOREST CITY *  CLOUDY    34  32  93 N10       29.79R WCI  26
IOWA FALLS *   CLOUDY    34  32  93 N12G21    29.79R WCI  25
$$

IAZ007>011-017>019-026>030-037>042-050>054-066-241000-
   NORTHEAST IOWA

CITY           SKY/WX    TMP DP  RH WIND       PRES   REMARKS
CEDAR RAPIDS   CLOUDY    34  34 100 NW12      29.72F FOG     WCI  25
CHARLES CITY * CLOUDY    34  34 100 N12       29.77R WCI  25
CLINTON *      CLOUDY    36  32  87 NW5       29.73S WCI  32
DECORAH *      CLOUDY    34  32  93 N8        29.73R WCI  27
DUBUQUE        FOG       33  33 100 NW8       29.70S VSB 3/4 WCI  26
MONTICELLO *   CLOUDY    34  34 100 NW7       29.72S FOG     WCI  28
OELWEIN *      MIX PCPN  34  34 100 N9        29.75S WCI  26
WATERLOO       CLOUDY    33  33 100 NW9       29.76R WCI  25
$$

IAZ064-065-067-068-078-241000-
   EAST CENTRAL IOWA

CITY           SKY/WX    TMP DP  RH WIND       PRES   REMARKS
DAVENPORT      CLOUDY    35  32  88 NW6       29.71F WCI  30
IOWA CITY      CLOUDY    35  34  96 NW7       29.74F FOG     WCI  29
MT. PLEASANT * CLOUDY    36  34  93 NW10      29.73F WCI  28
MUSCATINE *    CLOUDY    37  34  87 NW8       29.73F WCI  31
QUAD CITIES    CLOUDY    37  33  85 NW7       29.71S WCI  32
$$

IAZ062-063-075>077-085>089-095>099-241000-
   SOUTHEAST IOWA

CITY           SKY/WX    TMP DP  RH WIND       PRES   REMARKS
BURLINGTON     CLOUDY    37  35  92 NW8       29.71F WCI  31
FAIRFIELD *    CLOUDY    36  32  87 NW9G15    29.73F WCI  29
FORT MADISON * CLOUDY    37  37 100 NW8       29.72F WCI  31
KEOKUK *       CLOUDY    37  34  87 NW8       29.72S WCI  31
OSKALOOSA *    CLOUDY    34  32  93 NW12      29.75F WCI  25
CENTERVILLE *  CLOUDY    34  34 100 NW9       29.76F WCI  26
OTTUMWA        CLOUDY    34  33  96 NW12      29.75F WCI  25
WASHINGTON *   CLOUDY    36  36 100 NW8       29.73F WCI  29
$$

ABBREVIATIONS USED IN REMARKS
   TC - TEMPERATURES IN CELSIUS
  WCI - WIND CHILL INDEX
   HX - HEAT INDEX
  VSB - VISIBILITY
$$



USA.gov is the U.S. government's official web portal to all federal, state and local government web resources and services.